sat.trackr.live / text

‹ back to catalog

STARLINK-30359

NORAD 57779 · 2023-134J

PAYLOAD ACTIVE UNKNOWN

§ Identity

Operator
Country
US
Launch date
2023-09-04
Launch site
AFETR
Launch vehicle
Mass (kg)
RCS (m²)

Purposes: comms

External: N2YO · Heavens-Above · Gunter

§ Orbital elements

Epoch: 2026-05-24T23:06:58.784832Z

Period
94.27 min
Inclination
43.0034°
Eccentricity
0.0001146
Mean motion
15.27569891 rev/d
Perigee alt
482.3 km
Apogee alt
483.9 km
Semi-major
6,861.2 km
B*
5.1294e-5
RAAN
112.4708°
Arg perigee
265.8047°
Mean anomaly
94.2673°
Rev number
15,130

§ Raw data

STARLINK-303591 57779U 23134J   26144.96318038  .00001149  00000+0  51294-4 0  99922 57779  43.0034 112.4708 0001146 265.8047  94.2673 15.27569891151302

JSON: /api/v1/satellites/57779 · /tle

For live sub-satellite position, see the globe view (requires WebGL).

§ Visibility from observer

Set your observer location to see the next 7 days of passes ≥ 10°. The values pass through the URL so the page stays shareable.

No JS? Fill the form by hand. The geolocation button needs JavaScript.